CW4498 Weather Reports


Display with metric or nautical units.
time (UTC)temp
F
wind
direction
speed
MPH
gust
MPH
rain 1hr
in
rain 24hr
in
rain mn
in
humidity
%
barometer
mb
20260903114504 68 196 2.0 9.0 0.00 0.00 0.00 33 1014.9
20260903113004 68 246 3.0 10.0 0.00 0.00 0.00 32 1015.0
20260903111506 68 148 3.0 13.0 0.00 0.00 0.00 32 1014.7
20260903110003 67 131 3.0 11.0 0.00 0.00 0.00 32 1014.7
20260903104602 64 71 3.0 8.0 0.00 0.00 0.00 37 1014.9
20260903103001 62 272 0.0 2.0 0.00 0.00 0.00 40 1014.8
20260903101559 62 117 0.0 1.0 0.00 0.00 0.00 41 1014.8
20260903100058 62 254 0.0 2.0 0.00 0.00 0.00 40 1014.6
20260903094607 63 119 0.0 2.0 0.00 0.00 0.00 40 1014.7
20260903093054 64 109 0.0 4.0 0.00 0.00 0.00 39 1014.7
20260903091557 65 271 0.0 2.0 0.00 0.00 0.00 39 1014.7
20260903090050 65 140 0.0 3.0 0.00 0.00 0.00 39 1014.9
20260903084548 66 103 3.0 10.0 0.00 0.00 0.00 38 1014.5
20260903083044 67 118 2.0 9.0 0.00 0.00 0.00 37 1014.4
20260903081547 68 128 1.0 6.0 0.00 0.00 0.00 34 1014.4
20260903080042 69 5 1.0 7.0 0.00 0.00 0.00 34 1014.7
20260903074543 70 43 4.0 12.0 0.00 0.00 0.00 33 1014.8
20260903073047 70 302 3.0 8.0 0.00 0.00 0.00 33 1014.9
20260903071540 70 198 4.0 14.0 0.00 0.00 0.00 32 1014.8
20260903070039 69 127 3.0 11.0 0.00 0.00 0.00 34 1014.9
20260903064536 68 125 1.0 7.0 0.00 0.00 0.00 35 1014.9
20260903063034 71 317 3.0 9.0 0.00 0.00 0.00 31 1015.4
20260903061534 72 256 3.0 16.0 0.00 0.00 0.00 31 1015.5
20260903060029 72 315 3.0 11.0 0.00 0.00 0.00 32 1015.6
20260903054530 69 276 3.0 7.0 0.00 0.00 0.00 36 1015.7
20260903053029 69 24 1.0 10.0 0.00 0.00 0.00 35 1015.6
20260903051528 67 36 0.0 3.0 0.00 0.00 0.00 41 1015.7
20260903050026 65 327 0.0 3.0 0.00 0.00 0.00 44 1015.8
20260903044527 66 336 0.0 3.0 0.00 0.00 0.00 44 1015.8
20260903043026 67 32 2.0 4.0 0.00 0.00 0.00 43 1015.9
20260903041526 68 27 1.0 4.0 0.00 0.00 0.00 42 1016.0
20260903040028 68 26 1.0 2.0 0.00 0.00 0.00 41 1016.0
20260903034525 69 26 1.0 4.0 0.00 0.00 0.00 39 1016.1
20260903033024 70 17 1.0 3.0 0.00 0.00 0.00 35 1016.0
20260903031524 73 153 0.0 3.0 0.00 0.00 0.00 29 1016.0
20260903030029 74 276 1.0 4.0 0.00 0.00 0.00 28 1015.3
20260903024523 74 261 2.0 5.0 0.00 0.00 0.00 27 1015.2
20260903023022 75 267 2.0 7.0 0.00 0.00 0.00 27 1015.1
20260903021523 74 242 2.0 4.0 0.00 0.00 0.00 28 1014.9
20260903020035 73 223 1.0 5.0 0.00 0.00 0.00 28 1014.5
20260903014524 72 257 0.0 2.0 0.00 0.00 0.00 29 1014.5
20260903013020 73 268 0.0 2.0 0.00 0.00 0.00 30 1014.4
20260903011521 75 136 0.0 1.0 0.00 0.00 0.00 29 1014.4
20260903010020 76 125 1.0 3.0 0.00 0.00 0.00 27 1014.5
20260903004519 77 132 1.0 5.0 0.00 0.00 0.00 25 1014.5
20260903003019 78 119 0.0 2.0 0.00 0.00 0.00 25 1014.5
20260903001519 79 113 1.0 7.0 0.00 0.00 0.00 24 1014.1
20260903000018 80 119 2.0 7.0 0.00 0.00 0.00 23 1014.2
20260902234517 79 115 1.0 6.0 0.00 0.00 0.00 25 1014.4
20260902233017 79 132 1.0 4.0 0.00 0.00 0.00 25 1014.5
20260902231516 79 115 0.0 3.0 0.00 0.00 0.00 25 1014.5
20260902230017 79 116 1.0 5.0 0.00 0.00 0.00 25 1014.5
20260902224516 79 140 0.0 5.0 0.00 0.00 0.00 25 1014.6
20260902223021 79 126 1.0 6.0 0.00 0.00 0.00 25 1014.8
20260902221519 79 132 1.0 6.0 0.00 0.00 0.00 25 1014.9
20260902220012 81 192 1.0 8.0 0.00 0.00 0.00 24 1015.1
20260902214512 82 153 2.0 8.0 0.00 0.00 0.00 24 1015.2
20260902213011 82 136 4.0 7.0 0.00 0.00 0.00 24 1015.3
20260902211517 81 104 4.0 11.0 0.00 0.00 0.00 25 1015.6
20260902210010 82 119 4.0 12.0 0.00 0.00 0.00 25 1015.9
20260902204517 83 109 4.0 10.0 0.00 0.00 0.00 25 1016.1
20260902203010 83 112 6.0 11.0 0.00 0.00 0.00 24 1016.5
20260902201507 82 125 5.0 13.0 0.00 0.00 0.00 25 1016.8
20260902200006 82 105 4.0 10.0 0.00 0.00 0.00 25 1016.9
20260902194505 81 148 6.0 15.0 0.00 0.00 0.00 25 1017.0
20260902193005 82 105 4.0 11.0 0.00 0.00 0.00 26 1017.3
20260902191505 81 134 3.0 13.0 0.00 0.00 0.00 26 1017.5
20260902190006 84 206 2.0 9.0 0.00 0.00 0.00 25 1017.6
20260902184602 81 57 2.0 9.0 0.00 0.00 0.00 27 1018.2
20260902183109 80 149 1.0 11.0 0.00 0.00 0.00 27 1018.3
20260902181602 78 126 5.0 11.0 0.00 0.00 0.00 28 1018.5
20260902180054 79 126 3.0 10.0 0.00 0.00 0.00 28 1018.8
20260902174557 78 112 4.0 10.0 0.00 0.00 0.00 29 1019.1
20260902173058 78 136 2.0 9.0 0.00 0.00 0.00 29 1019.2
20260902171549 77 126 4.0 10.0 0.00 0.00 0.00 28 1019.4
20260902170052 77 119 3.0 10.0 0.00 0.00 0.00 29 1019.6
20260902164544 76 115 1.0 9.0 0.00 0.00 0.00 30 1019.7
20260902163045 75 272 5.0 14.0 0.00 0.00 0.00 31 1019.6
20260902161543 74 273 2.0 10.0 0.00 0.00 0.00 31 1019.8
20260902160046 75 292 0.0 4.0 0.00 0.00 0.00 31 1020.1
20260902154541 74 290 2.0 10.0 0.00 0.00 0.00 31 1020.1
20260902153051 73 24 2.0 12.0 0.00 0.00 0.00 32 1020.4
20260902151538 73 299 0.0 10.0 0.00 0.00 0.00 32 1020.5
20260902150035 72 31 6.0 12.0 0.00 0.00 0.00 32 1020.1
20260902144533 71 324 9.0 20.0 0.00 0.00 0.00 32 1020.1
20260902143030 71 304 4.0 15.0 0.00 0.00 0.00 33 1020.1
20260902141529 70 315 6.0 18.0 0.00 0.00 0.00 32 1020.2
20260902140028 70 277 7.0 19.0 0.00 0.00 0.00 31 1020.1
20260902134526 69 281 9.0 17.0 0.00 0.00 0.00 31 1019.8
20260902133028 69 307 9.0 21.0 0.00 0.00 0.00 32 1019.8
20260902131523 68 11 12.0 22.0 0.00 0.00 0.00 33 1019.8
20260902130023 68 279 8.0 22.0 0.00 0.00 0.00 34 1019.4
20260902124522 68 328 9.0 26.0 0.00 0.00 0.00 34 1019.3
20260902123021 68 304 10.0 24.0 0.00 0.00 0.00 34 1019.4
20260902121520 68 324 9.0 23.0 0.00 0.00 0.00 33 1019.3
20260902120019 68 309 10.0 21.0 0.00 0.00 0.00 32 1019.0